#timestamp,LO_Frequency,Hit 
1501207215.2,286047004.2,N
1501207235.0,286047003.2,N
1501207235.9,286047003.2,N
1501207255.8,286047004.4,N
1501207275.6,286047004.3,N
1501207295.4,286047002.3,N
1501207315.3,286047002.6,N
1501207335.1,286047003.2,N
1501207355.8,286047002.2,N
1501207375.7,286046999.7,N
1501207395.5,286047002.2,N
1501207415.3,286047002.8,N
1501207435.2,286047000.2,N
1501207455.9,286047004.3,N
1501207475.7,286047001.7,N
1501207495.6,286047005.2,N
1501207515.4,286047007.9,N
1501207535.2,286047009.1,N
1501207555.0,286047007.6,N
1501207555.9,286047007.6,N
1501207575.8,286047004.7,N
1501207595.6,286047006.0,N
1501207615.4,286047004.5,N
1501207635.3,286047008.7,N
1501207655.1,286047007.2,N
1501207656.0,286047007.2,N
1501207675.8,286047004.6,N
1501207695.7,286047005.9,N
1501207715.5,286047004.1,N
1501207735.3,286047005.5,N
1501207755.2,286047003.0,N
1501207775.9,286047002.5,N
1501207795.7,286047001.1,N
1501207815.5,286046999.1,N
1501207835.4,286046997.7,N
1501207855.2,286046995.1,N
1501207875.0,286046997.0,N
1501207875.9,286046997.0,N
1501207895.8,286046998.2,N
1501207915.6,286046996.5,N
1501207935.4,286046999.0,N
1501207955.3,286046999.9,N
1501207975.1,286046998.6,N
1501207995.8,286047001.2,N
1501208015.7,286046999.7,N
1501208035.5,286047001.6,N
1501208055.3,286046999.8,N
1501208075.2,286046999.5,N
1501208095.9,286046998.3,N
1501208115.7,286046997.0,N
1501208135.6,286046999.2,N
1501208155.4,286047004.3,N
1501208175.2,286047003.8,N
1501208195.0,286047006.3,N
1501208196.0,286047006.3,N
1501208215.8,286047005.2,N
1501208235.6,286047004.5,N
1501208255.4,286047007.4,N
1501208275.3,286047008.7,N
1501208295.1,286047006.3,N
1501208315.8,286047009.0,N
1501208335.7,286047007.1,N
1501208355.5,286047004.5,N
1501208375.3,286047005.6,N
1501208395.2,286047002.7,N
1501208415.9,286047000.1,N
1501208435.7,286046998.5,N
1501208455.6,286046997.7,N
1501208475.4,286046994.2,N
1501208495.2,286046992.5,N
1501208515.0,286046992.1,N
1501208516.0,286046992.1,N
1501208535.8,286046993.0,N
1501208555.6,286046990.9,N
1501208575.4,286046991.3,N
1501208595.3,286046990.5,N
1501208615.1,286046990.1,N
1501208635.8,286046992.9,N
1501208655.7,286046990.3,N
1501208675.5,286046994.0,N
1501208695.3,286046993.7,N
1501208715.2,286046994.6,N
1501208735.1,286046996.0,N
1501208755.8,286046995.9,N
1501208775.7,286046993.7,N
1501208795.5,286046994.0,N
1501208815.3,286046992.5,N
1501208835.2,286046989.9,N
1501208855.9,286046989.8,N
1501208875.7,286046991.0,N
1501208895.6,286046992.9,N
1501208915.4,286046997.9,N
1501208935.2,286046997.4,N
1501208955.0,286046998.0,N
1501208955.9,286046998.0,N
1501208975.8,286046995.7,N
1501208995.6,286046997.2,N
1501209015.4,286046998.2,N
1501209035.3,286046998.7,N
1501209055.1,286046996.8,N
1501209075.8,286046994.9,N
1501209095.7,286046996.7,N
1501209115.5,286046997.4,N
1501209135.3,286046997.4,N
1501209155.2,286046998.2,N
1501209175.9,286046998.5,N
1501209195.7,286047000.7,N
1501209215.6,286047001.0,N
1501209235.4,286046999.3,N
1501209255.2,286046998.5,N
1501209275.0,286047000.9,N
1501209275.9,286047000.9,N
1501209295.8,286046998.1,N
1501209315.6,286046999.1,N
1501209335.4,286047002.6,N
1501209355.3,286047001.8,N
1501209375.1,286047001.8,N
1501209395.8,286047004.2,N
1501209415.7,286047000.5,N
1501209435.5,286047000.9,N
1501209455.3,286047001.2,N
1501209475.2,286046998.5,N
1501209495.9,286046998.1,N
1501209515.7,286046999.9,N
1501209535.6,286047001.2,N
1501209555.4,286047002.7,N
1501209575.2,286047004.4,N
1501209595.0,286047004.2,N
1501209596.0,286047004.2,N
1501209615.1,286047004.7,N
1501209616.0,286047004.7,N
1501209635.8,286046999.9,N
1501209655.7,286047000.8,N
1501209675.5,286047002.0,N
1501209695.3,286046999.7,N
1501209715.1,286047004.2,N
1501209735.9,286047005.5,N
1501209755.7,286047001.5,N
1501209775.5,286047001.3,N
1501209795.4,286047005.5,N
1501209815.2,286047003.5,N
1501209835.0,286047000.0,N
1501209835.9,286047000.0,N
1501209855.8,286047001.8,N
1501209875.6,286047002.5,N
1501209895.4,286047003.5,N
1501209915.3,286047002.5,N
1501209935.1,286047002.8,N
1501209936.0,286047002.8,N
1501209955.8,286047002.5,N
1501209975.7,286047000.6,N
1501209995.5,286047000.6,N
1501210015.3,286046998.5,N
1501210035.1,286046996.9,N
1501210055.9,286046999.6,N
1501210075.7,286047002.8,N
1501210095.5,286047004.3,N
1501210115.4,286047001.6,N
1501210135.2,286047002.5,N
1501210155.0,286047002.5,N
1501210155.9,286047002.5,N
1501210175.8,286047003.5,N
1501210195.6,286047003.4,N
1501210215.4,286047006.0,N
1501210235.3,286047005.9,N
1501210255.1,286047003.1,N
1501210275.8,286047001.7,N
1501210295.7,286047001.4,N
1501210315.5,286047002.3,N
1501210335.3,286047002.4,N
1501210355.2,286047003.1,N
1501210375.9,286047003.0,N
1501210395.7,286047005.9,N
1501210415.6,286047002.4,N
1501210435.4,286047004.2,N
1501210455.2,286047005.3,N
1501210475.1,286047007.4,N
1501210476.0,286047007.4,N
1501210495.8,286047007.3,N
1501210515.6,286047007.5,N
1501210535.5,286047003.1,N
1501210555.3,286047001.8,N
1501210575.1,286047002.2,N
1501210595.9,286047002.2,N
1501210615.7,286047004.0,N
1501210635.5,286047002.5,N
1501210655.3,286047004.1,N
1501210675.2,286047002.7,N
1501210695.0,286046999.8,N
1501210695.9,286046999.8,N
1501210715.7,286047002.0,N
1501210735.6,286047009.2,N
1501210755.4,286047010.2,N
1501210775.2,286047010.4,N
1501210795.1,286047008.3,N
1501210796.0,286047008.3,N
